Simultaneous Nadir Overpasses (SNOs) Predictions

Prediction of SNOs between AQUA and METOP-A Satellite Orbit:

Table of predicted SNOs for the next 14.0 days since TLE Epoch: 2/5/2016
Index Date (AQUA) Time (AQUA) Lat,Lon (AQUA) SZA (AQUA ) Date (METOP-A) Time (METOP-A) Lat,Lon (METOP-A) SZA (METOP-A ) Distance(km) Time Diff (sec)
1 02/08/2016 13:51:58 -73.80, 146.27 91.04 02/08/2016 13:50:50 -73.80, 146.19 91.02 2.45 68
2 02/08/2016 14:41:27 73.88, -46.26 89.04 02/08/2016 14:41:29 73.86, -46.34 89.02 3.25 2
3 02/08/2016 15:30:55 -74.01, 121.09 90.84 02/08/2016 15:32:08 -73.98, 121.28 90.89 6.54 73
4 02/11/2016 09:26:11 -73.82,-147.33 91.92 02/11/2016 09:25:11 -73.82,-147.36 91.91 1.03 60
5 02/11/2016 10:15:40 73.90, 20.14 88.16 02/11/2016 10:15:49 73.92, 20.22 88.17 3.42 9
6 02/11/2016 11:05:13 -74.28,-173.10 91.44 02/11/2016 11:06:23 -74.29,-171.53 91.51 47.29 70
7 02/14/2016 05:00:25 -73.86, -80.96 92.82 02/14/2016 04:59:33 -73.83, -80.91 92.83 3.35 52
8 02/14/2016 05:49:53 73.89, 86.61 87.21 02/14/2016 05:50:12 73.88, 86.53 87.20 2.72 19
9 02/14/2016 06:39:33 -74.63,-107.48 92.00 02/14/2016 06:40:38 -74.64,-104.19 92.13 96.88 65
10 02/17/2016 00:34:38 -73.86, -14.51 93.78 02/17/2016 00:33:55 -73.84, -14.48 93.79 2.45 43
11 02/17/2016 01:24:06 73.89, 153.06 86.25 02/17/2016 01:24:34 73.88, 152.95 86.24 3.35 28




NCC Satellite Simultaneous Nadir Overpasses (SNOs) Prediction Service
